Flag for Germany Weather past 2 weeks in Dorsten, North Rhine-Westphalia, Germany

Now
65 °F

Clear.


Feels Like: 65 °F
Forecast: 56 / 76 °F
Wind: 2 mph from East

Location: Essen

Current Time: Sep 17, 2014 at 10:41:19 PM

Latest Report: Sep 17, 2014 at 10:00 PM


Visibility: 19 mi

Pressure: 29.88 "Hg

Humidity: 75%

Dew point: 57 °F

Location of DorstenLocation

Historic Weather in Dorsten — Graph

°F

Dorsten temperature yesterday

Maximum temperature yesterday: 76 °F (at 2:00 PM)
Minimum temperature yesterday: 60 °F (at 8:00 AM)
Average temperature yesterday: 67 °F

Past Weeks' High & Low Weather Summary

 TemperatureHumidityPressure
High77 °F (Sep 17, 4:00 PM)100% (Sep 3, 4:00 AM)30.25 "Hg (Sep 3, 4:00 AM)
Low48 °F (Sep 12, 6:00 AM)49% (Sep 17, 6:00 PM)29.85 "Hg (Sep 17, 6:00 PM)
Average62 °F79%30.07 "Hg
* Reported Sep 2 9:00 PM — Sep 17 9:00 PM, Dorsten, Weather by CustomWeather, © 2014

Note: Actual official high and low records may vary slightly from our data, if they occured in-between our weather recording intervals... More about our weather records

Advertising

Dorsten weather history for previous 24 hours

 ConditionsComfort  
Time TempWeatherWind HumidityBarometerVisibility
9:00 PM
Sep 17
68 °FClear.2 mph66%29.87 "Hg22 mi
8:00 PM69 °FClear.1 mph66%29.86 "Hg22 mi
7:00 PM73 °FSunny.2 mph57%29.85 "Hg25 mi
6:00 PM76 °FSunny.3 mph49%29.85 "Hg28 mi
5:00 PM75 °FSunny.3 mph50%29.85 "Hg25 mi
4:00 PM77 °FPartly sunny.3 mph50%29.86 "Hg19 mi
3:00 PM75 °FPartly sunny.5 mph53%29.87 "Hg25 mi
2:00 PM74 °FPassing clouds.5 mph58%29.88 "Hg17 mi
1:00 PM73 °FSunny.3 mph60%29.89 "Hg19 mi
12:00 PM72 °FSunny.3 mph61%29.91 "Hg17 mi
11:00 AM70 °FSunny.2 mph67%29.91 "Hg14 mi
10:00 AM67 °FSunny.2 mph72%29.92 "Hg13 mi
9:00 AM64 °FSunny.2 mph77%29.92 "Hg13 mi
8:00 AM60 °FSunny.2 mph87%29.93 "Hg11 mi
7:00 AM59 °FClear.2 mph89%29.93 "Hg12 mi
6:00 AM59 °FClear.1 mph89%29.94 "Hg12 mi
5:00 AM60 °FClear.1 mph88%29.94 "Hg12 mi
4:00 AM59 °FClear.2 mph88%29.94 "Hg12 mi
3:00 AM61 °FClear.2 mph86%29.94 "Hg13 mi
2:00 AM61 °FClear.2 mph85%29.95 "Hg12 mi
1:00 AM62 °FClear.2 mph84%29.95 "Hg12 mi
12:00 AM62 °FClear.2 mph83%29.96 "Hg12 mi
11:00 PM
Sep 16
64 °FClear.2 mph80%29.95 "Hg15 mi
10:00 PM65 °FClear.3 mph77%29.96 "Hg16 mi
Weather by CustomWeather, © 2014

See weather overviewHow to use our weather pages